LU9FW-5 Weather Reports


Display with metric or nautical units.
time (UTC)temp
F
wind
direction
speed
MPH
gust
MPH
rain 1hr
in
rain 24hr
in
rain mn
in
humidity
%
barometer
mb
20260505160628 75 22 6.0 9.0 0.00 0.00 0.00 84 1006.6
20260505160516 75 45 6.0 9.0 0.00 0.00 0.00 84 1006.4
20260505160408 75 22 6.0 9.0 0.00 0.00 0.00 83 1006.6
20260505160308 75 22 7.0 9.0 0.00 0.00 0.00 83 1006.6
20260505160146 74 22 6.0 9.0 0.00 0.00 0.00 83 1006.8
20260505153334 74 22 8.0 9.0 0.00 0.00 0.00 83 1006.8
20260505153225 74 22 7.0 9.0 0.00 0.00 0.00 83 1006.7
20260505153116 74 22 6.0 9.0 0.00 0.00 0.00 83 1006.8
20260505153013 74 0 5.0 9.0 0.00 0.00 0.00 84 1006.9
20260505152854 74 22 5.0 11.0 0.00 0.00 0.00 84 1006.7
20260505152745 74 45 6.0 11.0 0.00 0.00 0.00 84 1006.8
20260505152639 74 22 7.0 11.0 0.00 0.00 0.00 84 1007.1
20260505152532 74 0 5.0 11.0 0.00 0.00 0.00 83 1006.9
20260505152411 74 0 8.0 11.0 0.00 0.00 0.00 84 1006.8
20260505152305 74 0 7.0 11.0 0.00 0.00 0.00 84 1006.9
20260505152153 74 22 7.0 11.0 0.00 0.00 0.00 84 1006.9
20260505152043 74 22 7.0 11.0 0.00 0.00 0.00 84 1006.5
20260505151938 74 22 8.0 11.0 0.00 0.00 0.00 84 1006.9
20260505151817 74 22 8.0 11.0 0.00 0.00 0.00 84 1006.7
20260505151709 74 45 7.0 11.0 0.00 0.00 0.00 83 1006.7
20260505151607 74 0 8.0 11.0 0.00 0.00 0.00 83 1006.8
20260505151448 75 22 8.0 11.0 0.00 0.00 0.00 83 1006.8
20260505151337 75 45 8.0 11.0 0.00 0.00 0.00 83 1006.8
20260505151229 75 45 7.0 11.0 0.00 0.00 0.00 83 1006.9
20260505151119 75 0 8.0 11.0 0.00 0.00 0.00 83 1006.8
20260505151001 75 22 7.0 11.0 0.00 0.00 0.00 82 1006.7
20260505150750 75 23 7.0 13.0 0.00 0.00 0.00 83 1006.7
20260505150639 74 0 8.0 13.0 0.00 0.00 0.00 84 1006.7
20260505150521 74 22 8.0 13.0 0.00 0.00 0.00 83 1006.8
20260505150411 74 22 6.0 13.0 0.00 0.00 0.00 84 1006.8
20260505150309 74 22 6.0 13.0 0.00 0.00 0.00 84 1006.7
20260505150203 73 22 7.0 13.0 0.00 0.00 0.00 85 1006.8
20260505140640 72 22 8.0 11.0 0.00 0.00 0.00 87 1007.0
20260505140532 72 0 8.0 11.0 0.00 0.00 0.00 87 1007.0
20260505140413 71 0 8.0 11.0 0.00 0.00 0.00 87 1007.1
20260505140305 71 22 8.0 11.0 0.00 0.00 0.00 88 1006.9
20260505140205 71 22 8.0 11.0 0.00 0.00 0.00 88 1007.0
20260505130312 67 0 4.0 8.0 0.00 0.00 0.00 94 1007.3
20260505130202 67 0 7.0 8.0 0.00 0.00 0.00 94 1007.2
20260505125021 66 0 6.0 7.0 0.00 0.00 0.00 94 1007.1
20260505124907 66 0 4.0 7.0 0.00 0.00 0.00 94 1007.3
20260505124757 66 0 4.0 7.0 0.00 0.00 0.00 94 1007.3
20260505124649 66 0 4.0 7.0 0.00 0.00 0.00 94 1007.0
20260505124541 66 0 4.0 7.0 0.00 0.00 0.00 94 1007.1
20260505124430 66 0 4.0 7.0 0.00 0.00 0.00 95 1007.2
20260505124320 66 0 4.0 8.0 0.00 0.00 0.00 95 1007.1
20260505124210 66 23 4.0 8.0 0.00 0.00 0.00 95 1007.1
20260505124101 66 0 4.0 8.0 0.00 0.00 0.00 95 1007.2
20260505123941 66 0 4.0 8.0 0.00 0.00 0.00 95 1007.2
20260505123832 66 23 4.0 8.0 0.00 0.00 0.00 95 1007.3
20260505123724 66 0 5.0 8.0 0.00 0.00 0.00 95 1007.4
20260505123618 66 0 4.0 8.0 0.00 0.00 0.00 95 1007.4
20260505123502 66 0 4.0 8.0 0.00 0.00 0.00 95 1007.2
20260505123242 66 0 4.0 7.0 0.00 0.00 0.00 95 1007.3
20260505123133 66 22 4.0 7.0 0.00 0.00 0.00 95 1007.4
20260505123033 66 0 4.0 7.0 0.00 0.00 0.00 95 1007.4
20260505123002 66 0 4.0 7.0 0.00 0.00 0.00 95 1007.3
20260505122800 66 23 5.0 7.0 0.00 0.00 0.00 95 1007.3
20260505122658 66 0 5.0 7.0 0.00 0.00 0.00 95 1007.4
20260505122540 65 23 4.0 7.0 0.00 0.00 0.00 95 1007.3
20260505122429 65 0 4.0 7.0 0.00 0.00 0.00 95 1007.2
20260505122317 65 0 4.0 7.0 0.00 0.00 0.00 95 1007.3
20260505122213 65 0 4.0 7.0 0.00 0.00 0.00 95 1007.2
20260505122056 65 0 4.0 7.0 0.00 0.00 0.00 95 1007.1
20260505121945 65 0 5.0 7.0 0.00 0.00 0.00 95 1007.4
20260505121845 65 23 5.0 7.0 0.00 0.00 0.00 95 1007.1
20260505121734 65 0 5.0 7.0 0.00 0.00 0.00 95 1007.3
20260505121615 65 23 4.0 7.0 0.00 0.00 0.00 95 1007.2
20260505121502 65 0 5.0 7.0 0.00 0.00 0.00 95 1007.0
20260505121354 65 23 4.0 8.0 0.00 0.00 0.00 95 1007.1
20260505121250 65 23 5.0 8.0 0.00 0.00 0.00 96 1007.2
20260505121133 65 0 5.0 8.0 0.00 0.00 0.00 96 1007.3
20260505121031 65 0 5.0 8.0 0.00 0.00 0.00 96 1007.1
20260505120952 65 0 4.0 8.0 0.00 0.00 0.00 96 1007.1
20260505120915 65 0 4.0 8.0 0.00 0.00 0.00 96 1007.2
20260505120648 65 0 5.0 8.0 0.00 0.00 0.00 96 1007.3
20260505120537 65 0 5.0 8.0 0.00 0.00 0.00 96 1007.2
20260505120445 65 22 5.0 8.0 0.00 0.00 0.00 96 1007.3
20260505120409 65 0 5.0 7.0 0.00 0.00 0.00 96 1007.1
20260505120206 65 0 6.0 7.0 0.00 0.00 0.00 96 1007.1
20260505115954 65 0 5.0 7.0 0.00 0.00 0.00 96 1007.1
20260505115844 65 0 4.0 7.0 0.00 0.00 0.00 96 1007.0
20260505115721 65 0 5.0 7.0 0.00 0.00 0.00 96 1006.8
20260505115612 65 22 5.0 7.0 0.00 0.00 0.00 96 1006.9
20260505115512 65 0 6.0 7.0 0.00 0.00 0.00 96 1006.8
20260505115402 65 23 4.0 7.0 0.00 0.00 0.00 96 1006.5
20260505115133 65 0 5.0 7.0 0.00 0.00 0.00 96 1006.5
20260505115031 65 23 4.0 7.0 0.00 0.00 0.00 96 1006.6
20260505114918 65 0 4.0 7.0 0.00 0.00 0.00 96 1006.8
20260505114758 65 0 4.0 7.0 0.00 0.00 0.00 97 1006.7
20260505114655 65 23 3.0 7.0 0.00 0.00 0.00 97 1006.6
20260505114547 64 0 4.0 7.0 0.00 0.00 0.00 97 1006.4
20260505114436 64 0 4.0 7.0 0.00 0.00 0.00 97 1006.6
20260505114318 64 0 4.0 6.0 0.00 0.00 0.00 97 1006.7
20260505114104 64 23 4.0 6.0 0.00 0.00 0.00 97 1006.5
20260505113954 64 23 4.0 6.0 0.00 0.00 0.00 97 1006.6
20260505113840 64 0 4.0 6.0 0.00 0.00 0.00 97 1006.5
20260505113732 64 23 4.0 6.0 0.00 0.00 0.00 97 1006.5
20260505113621 64 23 4.0 6.0 0.00 0.00 0.00 97 1006.6
20260505113510 64 23 4.0 6.0 0.00 0.00 0.00 97 1006.6
20260505113354 64 23 4.0 6.0 0.00 0.00 0.00 97 1006.6
20260505113243 64 0 4.0 6.0 0.00 0.00 0.00 97 1006.6
20260505113142 64 0 4.0 6.0 0.00 0.00 0.00 97 1006.5
20260505113033 64 23 4.0 6.0 0.00 0.00 0.00 97 1006.6
20260505112914 64 0 3.0 6.0 0.00 0.00 0.00 97 1006.6
20260505112801 64 0 4.0 6.0 0.00 0.00 0.00 97 1006.7
20260505112701 64 0 4.0 4.0 0.00 0.00 0.00 97 1006.5
20260505112550 64 23 3.0 4.0 0.00 0.00 0.00 97 1006.4
20260505112434 64 23 3.0 4.0 0.00 0.00 0.00 97 1006.2
20260505112323 64 23 2.0 4.0 0.00 0.00 0.00 97 1006.4
20260505112221 64 23 3.0 4.0 0.00 0.00 0.00 97 1006.2
20260505112104 64 45 2.0 4.0 0.00 0.00 0.00 97 1006.3
20260505111946 64 45 3.0 4.0 0.00 0.00 0.00 97 1006.2
20260505111837 64 0 3.0 4.0 0.00 0.00 0.00 97 1006.6
20260505111735 64 0 3.0 4.0 0.00 0.00 0.00 97 1006.5
20260505111506 63 23 2.0 4.0 0.00 0.00 0.00 97 1006.5
20260505111403 63 23 3.0 4.0 0.00 0.00 0.00 97 1006.3
20260505111255 63 0 3.0 4.0 0.00 0.00 0.00 97 1006.3
20260505111144 63 0 3.0 4.0 0.00 0.00 0.00 97 1006.5
20260505111033 63 23 2.0 4.0 0.00 0.00 0.00 97 1006.3
20260505110916 63 45 2.0 4.0 0.00 0.00 0.00 97 1006.3
20260505110808 63 0 3.0 4.0 0.00 0.00 0.00 97 1006.5
20260505110658 63 0 4.0 4.0 0.00 0.00 0.00 97 1006.7
20260505110547 63 0 4.0 6.0 0.00 0.00 0.00 97 1006.7
20260505110436 63 0 3.0 6.0 0.00 0.00 0.00 97 1006.6
20260505110328 63 45 3.0 6.0 0.00 0.00 0.00 97 1006.5
20260505110218 63 45 4.0 6.0 0.00 0.00 0.00 98 1006.6
20260505110118 63 0 3.0 6.0 0.00 0.00 0.00 98 1006.5
20260505102221 62 23 2.0 2.0 0.00 0.00 0.00 98 1006.1
20260505102110 62 45 2.0 2.0 0.00 0.00 0.00 98 1006.3
20260505102002 62 23 2.0 2.0 0.00 0.00 0.00 98 1006.1
20260505101841 62 23 2.0 2.0 0.00 0.00 0.00 98 1006.1
20260505101731 62 0 2.0 2.0 0.00 0.00 0.00 98 1006.1
20260505101628 62 23 2.0 2.0 0.00 0.00 0.00 98 1006.1
20260505101522 62 23 2.0 2.0 0.00 0.00 0.00 98 1006.2
20260505101401 62 23 2.0 2.0 0.00 0.00 0.00 98 1006.1
20260505101253 61 23 2.0 2.0 0.00 0.00 0.00 98 1005.9
20260505101145 61 23 2.0 2.0 0.00 0.00 0.00 98 1006.2
20260505101101 62 23 2.0 2.0 0.00 0.00 0.00 98 1006.1
20260505101034 62 23 2.0 2.0 0.00 0.00 0.00 98 1005.9
20260505100808 62 23 2.0 2.0 0.00 0.00 0.00 98 1006.1
20260505100706 61 0 2.0 2.0 0.00 0.00 0.00 98 1006.1
20260505100557 61 0 1.0 2.0 0.00 0.00 0.00 98 1006.1
20260505100438 61 23 0.0 2.0 0.00 0.00 0.00 98 1006.0
20260505100328 61 23 2.0 2.0 0.00 0.00 0.00 98 1005.9
20260505100226 61 23 2.0 2.0 0.00 0.00 0.00 98 1005.8
20260505100118 61 0 2.0 2.0 0.00 0.00 0.00 98 1005.8
20260505100008 61 0 2.0 2.0 0.00 0.00 0.00 98 1005.8
20260505095738 61 0 2.0 2.0 0.00 0.00 0.00 98 1005.8
20260505095630 61 0 2.0 2.0 0.00 0.00 0.00 98 1005.8
20260505095511 61 0 2.0 2.0 0.00 0.00 0.00 98 1005.8
20260505095408 61 0 1.0 2.0 0.00 0.00 0.00 98 1005.8
20260505095257 61 22 2.0 2.0 0.00 0.00 0.00 98 1006.1
20260505095153 61 22 2.0 2.0 0.00 0.00 0.00 98 1005.8
20260505095034 61 22 2.0 2.0 0.00 0.00 0.00 98 1005.8
20260505094926 61 0 2.0 2.0 0.00 0.00 0.00 98 1005.7
20260505094815 61 23 2.0 2.0 0.00 0.00 0.00 98 1005.6
20260505094706 61 23 2.0 2.0 0.00 0.00 0.00 98 1005.7
20260505094548 61 23 2.0 2.0 0.00 0.00 0.00 98 1005.6
20260505094438 61 23 2.0 2.0 0.00 0.00 0.00 98 1005.7
20260505094224 61 23 2.0 2.0 0.00 0.00 0.00 97 1005.7
20260505094106 61 45 2.0 2.0 0.00 0.00 0.00 98 1005.8
20260505094002 61 45 2.0 2.0 0.00 0.00 0.00 98 1005.7
20260505093854 61 45 2.0 2.0 0.00 0.00 0.00 98 1005.7
20260505093743 61 45 2.0 2.0 0.00 0.00 0.00 98 1005.7
20260505093624 61 45 2.0 2.0 0.00 0.00 0.00 98 1005.8
20260505093516 61 23 2.0 2.0 0.00 0.00 0.00 97 1005.8
20260505093410 61 23 2.0 2.0 0.00 0.00 0.00 98 1005.7
20260505093140 61 45 2.0 2.0 0.00 0.00 0.00 97 1005.7
20260505093041 61 23 2.0 2.0 0.00 0.00 0.00 97 1005.7
20260505092930 61 23 2.0 2.0 0.00 0.00 0.00 97 1005.7
20260505092818 61 23 2.0 2.0 0.00 0.00 0.00 97 1005.6
20260505092658 61 23 2.0 2.0 0.00 0.00 0.00 97 1005.6
20260505092556 61 23 1.0 2.0 0.00 0.00 0.00 97 1005.7
20260505092448 61 23 0.0 0.0 0.00 0.00 0.00 97 1005.6
20260505092337 61 23 0.0 0.0 0.00 0.00 0.00 97 1005.4
20260505092224 61 45 0.0 0.0 0.00 0.00 0.00 97 1005.6
20260505092112 61 45 0.0 0.0 0.00 0.00 0.00 97 1005.6
20260505092002 61 45 0.0 0.0 0.00 0.00 0.00 97 1005.6
20260505091900 61 23 0.0 0.0 0.00 0.00 0.00 97 1005.6
20260505091630 60 45 0.0 0.0 0.00 0.00 0.00 97 1005.4
20260505091520 60 23 0.0 0.0 0.00 0.00 0.00 97 1005.6
20260505091411 60 23 0.0 0.0 0.00 0.00 0.00 97 1005.7
20260505091254 60 23 0.0 0.0 0.00 0.00 0.00 97 1005.6
20260505091144 60 45 0.0 0.0 0.00 0.00 0.00 97 1005.7
20260505091044 60 45 0.0 0.0 0.00 0.00 0.00 97 1005.8
20260505090934 60 45 0.0 0.0 0.00 0.00 0.00 97 1005.6
20260505090815 60 23 0.0 0.0 0.00 0.00 0.00 97 1005.5
20260505090601 60 23 0.0 0.0 0.00 0.00 0.00 97 1005.7
20260505090453 60 45 0.0 0.0 0.00 0.00 0.00 97 1005.6
20260505090334 60 45 0.0 2.0 0.00 0.00 0.00 97 1005.6
20260505090226 60 45 0.0 2.0 0.00 0.00 0.00 97 1005.7
20260505090117 60 45 0.0 2.0 0.00 0.00 0.00 97 1005.5
20260505090009 59 23 0.0 2.0 0.00 0.00 0.00 97 1005.5
20260505085849 59 23 0.0 2.0 0.00 0.00 0.00 97 1005.6
20260505085739 59 23 0.0 2.0 0.00 0.00 0.00 97 1005.5
20260505085635 59 23 0.0 2.0 0.00 0.00 0.00 97 1005.6
20260505085525 59 45 0.0 2.0 0.00 0.00 0.00 97 1005.4
20260505085408 59 45 1.0 2.0 0.00 0.00 0.00 97 1005.5
20260505085258 59 45 2.0 2.0 0.00 0.00 0.00 97 1005.5
20260505085157 59 45 2.0 2.0 0.00 0.00 0.00 97 1005.4
20260505085045 59 45 2.0 2.0 0.00 0.00 0.00 97 1005.5
20260505084929 59 23 2.0 2.0 0.00 0.00 0.00 97 1005.5
20260505084818 59 23 2.0 2.0 0.00 0.00 0.00 97 1005.4
20260505084709 59 23 2.0 2.0 0.00 0.00 0.00 97 1005.4
20260505084606 59 23 2.0 2.0 0.00 0.00 0.00 97 1005.5
20260505084444 59 45 0.0 2.0 0.00 0.00 0.00 97 1005.3
20260505084336 59 45 0.0 2.0 0.00 0.00 0.00 97 1005.5
20260505084233 59 45 0.0 2.0 0.00 0.00 0.00 97 1005.7
20260505084001 59 45 0.0 2.0 0.00 0.00 0.00 97 1005.7
20260505083851 59 45 0.0 2.0 0.00 0.00 0.00 97 1005.6
20260505083746 59 45 0.0 2.0 0.00 0.00 0.00 97 1005.6
20260505083643 59 45 1.0 2.0 0.00 0.00 0.00 97 1005.6
20260505083524 59 45 1.0 2.0 0.00 0.00 0.00 97 1005.4
20260505083412 58 45 1.0 2.0 0.00 0.00 0.00 97 1005.6
20260505083302 58 45 0.0 0.0 0.00 0.00 0.00 97 1005.6
20260505083159 58 45 0.0 0.0 0.00 0.00 0.00 97 1005.5
20260505083040 58 90 0.0 0.0 0.00 0.00 0.00 97 1005.6
20260505082930 57 90 0.0 0.0 0.00 0.00 0.00 97 1005.5
20260505082822 57 90 0.0 0.0 0.00 0.00 0.00 97 1005.3
20260505082711 57 68 0.0 0.0 0.00 0.00 0.00 96 1005.5
20260505082601 57 45 0.0 0.0 0.00 0.00 0.00 96 1005.4
20260505082449 57 45 0.0 0.0 0.00 0.00 0.00 96 1005.5
20260505082339 57 45 0.0 2.0 0.00 0.00 0.00 96 1005.5
20260505082239 57 45 0.0 2.0 0.00 0.00 0.00 96 1005.7
20260505082203 57 45 0.0 2.0 0.00 0.00 0.00 96 1005.4
20260505082008 57 45 0.0 2.0 0.00 0.00 0.00 96 1005.7
20260505081856 57 45 0.0 2.0 0.00 0.00 0.00 96 1005.5
20260505081747 57 45 0.0 2.0 0.00 0.00 0.00 96 1005.6
20260505081634 57 45 0.0 2.0 0.00 0.00 0.00 96 1005.5
20260505081418 57 45 1.0 2.0 0.00 0.00 0.00 95 1005.4
20260505081308 57 45 1.0 2.0 0.00 0.00 0.00 96 1005.3
20260505081149 57 23 0.0 0.0 0.00 0.00 0.00 95 1005.3
20260505081046 57 23 0.0 0.0 0.00 0.00 0.00 95 1005.5
20260505080931 57 23 0.0 0.0 0.00 0.00 0.00 95 1005.4
20260505080831 57 23 0.0 0.0 0.00 0.00 0.00 95 1005.4
20260505080710 57 23 0.0 0.0 0.00 0.00 0.00 95 1005.4
20260505080559 57 0 0.0 0.0 0.00 0.00 0.00 95 1005.3
20260505080455 57 0 0.0 0.0 0.00 0.00 0.00 95 1005.3
20260505080346 58 0 0.0 0.0 0.00 0.00 0.00 95 1005.2
20260505080226 58 0 0.0 0.0 0.00 0.00 0.00 95 1005.4
20260505080150 58 0 0.0 0.0 0.00 0.00 0.00 95 1005.5
20260505080123 58 22 0.0 0.0 0.00 0.00 0.00 94 1005.4
20260505075906 58 22 0.0 0.0 0.00 0.00 0.00 94 1005.4
20260505075741 58 22 0.0 2.0 0.00 0.00 0.00 94 1005.4
20260505075645 58 22 0.0 2.0 0.00 0.00 0.00 94 1005.5
20260505075618 58 22 0.0 2.0 0.00 0.00 0.00 94 1005.7
20260505075423 58 22 0.0 2.0 0.00 0.00 0.00 94 1005.6
20260505075305 58 22 0.0 2.0 0.00 0.00 0.00 94 1005.6
20260505075154 58 22 0.0 2.0 0.00 0.00 0.00 94 1005.6
20260505075046 58 22 0.0 2.0 0.00 0.00 0.00 94 1005.7
20260505074823 58 22 0.0 4.0 0.00 0.00 0.00 94 1005.5
20260505074713 58 0 1.0 4.0 0.00 0.00 0.00 93 1005.5
20260505074602 59 22 1.0 4.0 0.00 0.00 0.00 93 1005.5
20260505074500 59 22 2.0 4.0 0.00 0.00 0.00 93 1005.7
20260505074339 59 22 2.0 4.0 0.00 0.00 0.00 93 1005.6
20260505074228 59 22 2.0 4.0 0.00 0.00 0.00 93 1005.5
20260505074126 59 22 2.0 4.0 0.00 0.00 0.00 93 1005.6
20260505074014 59 22 2.0 4.0 0.00 0.00 0.00 93 1005.6
20260505073854 60 22 2.0 4.0 0.00 0.00 0.00 93 1005.5
20260505073745 60 22 2.0 4.0 0.00 0.00 0.00 93 1005.5
20260505073643 60 22 2.0 2.0 0.00 0.00 0.00 93 1005.6
20260505073559 60 45 2.0 2.0 0.00 0.00 0.00 93 1005.8
20260505073524 60 45 2.0 2.0 0.00 0.00 0.00 93 1005.5
20260505073308 60 45 2.0 4.0 0.00 0.00 0.00 93 1005.5
20260505073157 60 45 2.0 4.0 0.00 0.00 0.00 93 1005.4
20260505073049 60 22 2.0 4.0 0.00 0.00 0.00 92 1005.6
20260505072931 60 22 2.0 4.0 0.00 0.00 0.00 92 1005.4
20260505072825 60 22 2.0 4.0 0.00 0.00 0.00 92 1005.3
20260505072715 60 22 2.0 4.0 0.00 0.00 0.00 92 1005.5
20260505072611 60 22 2.0 4.0 0.00 0.00 0.00 92 1005.4
20260505072511 60 22 2.0 4.0 0.00 0.00 0.00 92 1005.5
20260505072450 60 22 2.0 4.0 0.00 0.00 0.00 92 1005.4
20260505072233 60 22 2.0 4.0 0.00 0.00 0.00 92 1005.5
20260505072131 60 22 3.0 4.0 0.00 0.00 0.00 92 1005.6
20260505072030 60 0 2.0 4.0 0.00 0.00 0.00 92 1005.5
20260505071954 60 22 2.0 4.0 0.00 0.00 0.00 92 1005.4
20260505071751 60 22 3.0 4.0 0.00 0.00 0.00 92 1005.4
20260505071648 60 22 3.0 4.0 0.00 0.00 0.00 92 1005.4
20260505071528 60 22 2.0 4.0 0.00 0.00 0.00 92 1005.4
20260505071418 60 0 2.0 4.0 0.00 0.00 0.00 91 1005.4
20260505071314 60 0 2.0 4.0 0.00 0.00 0.00 91 1005.2
20260505071206 60 0 2.0 4.0 0.00 0.00 0.00 91 1005.2
20260505071047 60 0 2.0 4.0 0.00 0.00 0.00 91 1005.4
20260505070935 60 0 2.0 4.0 0.00 0.00 0.00 91 1005.3
20260505070836 60 22 2.0 4.0 0.00 0.00 0.00 91 1005.3
20260505070724 60 0 3.0 4.0 0.00 0.00 0.00 91 1005.3
20260505070605 60 0 3.0 4.0 0.00 0.00 0.00 91 1005.3
20260505070454 61 0 3.0 4.0 0.00 0.00 0.00 90 1005.2
20260505070346 61 0 3.0 4.0 0.00 0.00 0.00 90 1005.2
20260505070244 61 0 4.0 4.0 0.00 0.00 0.00 90 1005.3
20260505070123 61 0 3.0 4.0 0.00 0.00 0.00 90 1005.2
20260505070012 61 23 3.0 4.0 0.00 0.00 0.00 90 1005.3
20260505065904 61 23 3.0 4.0 0.00 0.00 0.00 90 1005.1
20260505065642 61 23 3.0 4.0 0.00 0.00 0.00 90 1005.1
20260505065531 61 23 3.0 4.0 0.00 0.00 0.00 90 1005.2
20260505065423 61 23 3.0 4.0 0.00 0.00 0.00 90 1005.3
20260505065313 61 23 2.0 4.0 0.00 0.00 0.00 90 1005.3
20260505065155 61 23 2.0 4.0 0.00 0.00 0.00 90 1005.4
20260505065045 61 23 2.0 4.0 0.00 0.00 0.00 90 1005.4
20260505064944 61 0 2.0 4.0 0.00 0.00 0.00 90 1005.3
20260505064832 60 0 2.0 4.0 0.00 0.00 0.00 89 1005.4
20260505064714 60 23 2.0 4.0 0.00 0.00 0.00 89 1005.3
20260505064605 60 23 3.0 4.0 0.00 0.00 0.00 89 1005.3
20260505064456 60 23 3.0 4.0 0.00 0.00 0.00 89 1005.4
20260505064354 60 23 3.0 4.0 0.00 0.00 0.00 89 1005.3
20260505064238 60 23 3.0 4.0 0.00 0.00 0.00 89 1005.5
20260505064126 60 45 3.0 4.0 0.00 0.00 0.00 89 1005.5
20260505064015 60 23 3.0 4.0 0.00 0.00 0.00 89 1005.7
20260505063913 60 23 3.0 4.0 0.00 0.00 0.00 89 1005.5
20260505063751 60 23 3.0 4.0 0.00 0.00 0.00 89 1005.6
20260505063641 60 45 3.0 4.0 0.00 0.00 0.00 89 1005.7
20260505063539 60 23 3.0 4.0 0.00 0.00 0.00 89 1005.5
20260505063429 60 23 2.0 4.0 0.00 0.00 0.00 89 1005.7
20260505063313 60 23 2.0 4.0 0.00 0.00 0.00 89 1005.7
20260505063052 60 23 2.0 4.0 0.00 0.00 0.00 89 1005.6
20260505062942 60 23 2.0 2.0 0.00 0.00 0.00 89 1005.8
20260505062824 60 23 2.0 2.0 0.00 0.00 0.00 89 1005.7
20260505062724 60 23 2.0 2.0 0.00 0.00 0.00 88 1005.5
20260505062610 60 23 2.0 4.0 0.00 0.00 0.00 88 1005.6
20260505062501 60 23 2.0 4.0 0.00 0.00 0.00 88 1005.7
20260505062347 60 23 2.0 4.0 0.00 0.00 0.00 88 1005.6
20260505062237 60 0 2.0 4.0 0.00 0.00 0.00 88 1005.7
20260505062127 60 23 2.0 4.0 0.00 0.00 0.00 88 1005.8
20260505062025 60 23 2.0 4.0 0.00 0.00 0.00 88 1005.7
20260505061906 60 23 2.0 4.0 0.00 0.00 0.00 88 1005.7
20260505061758 60 23 2.0 4.0 0.00 0.00 0.00 88 1005.7
20260505061542 60 0 2.0 4.0 0.00 0.00 0.00 88 1005.8
20260505061423 60 0 2.0 4.0 0.00 0.00 0.00 88 1005.8
20260505061313 60 0 2.0 4.0 0.00 0.00 0.00 87 1005.8
20260505061209 60 0 2.0 4.0 0.00 0.00 0.00 87 1005.8
20260505061059 60 23 2.0 4.0 0.00 0.00 0.00 87 1005.8
20260505060939 60 0 2.0 4.0 0.00 0.00 0.00 87 1005.9
20260505060835 60 0 2.0 4.0 0.00 0.00 0.00 87 1005.9
20260505060741 60 22 2.0 4.0 0.00 0.00 0.00 87 1005.9
20260505060712 60 0 2.0 4.0 0.00 0.00 0.00 88 1005.7
20260505060341 60 22 3.0 0.0 0.00 0.00 0.00 87 1005.9
20260505055935 59 22 3.0 4.0 0.00 0.00 0.00 88 1005.9
20260505055817 59 0 3.0 4.0 0.00 0.00 0.00 89 1005.8
20260505055556 58 0 2.0 4.0 0.00 0.00 0.00 89 1005.7
20260505055447 58 0 2.0 4.0 0.00 0.00 0.00 89 1005.7
20260505055329 58 0 2.0 4.0 0.00 0.00 0.00 89 1005.7
20260505055228 57 0 3.0 4.0 0.00 0.00 0.00 90 1005.6
20260505055118 57 23 2.0 4.0 0.00 0.00 0.00 89 1005.6
20260505055008 57 23 2.0 4.0 0.00 0.00 0.00 89 1005.5
20260505054848 57 23 2.0 4.0 0.00 0.00 0.00 89 1005.4
20260505054739 57 0 2.0 4.0 0.00 0.00 0.00 89 1005.4
20260505054634 57 0 2.0 4.0 0.00 0.00 0.00 89 1005.5
20260505054526 57 0 2.0 4.0 0.00 0.00 0.00 89 1005.6
20260505054404 57 23 2.0 4.0 0.00 0.00 0.00 89 1005.5
20260505054304 57 23 2.0 4.0 0.00 0.00 0.00 89 1005.5
20260505054204 57 23 2.0 4.0 0.00 0.00 0.00 89 1005.4
20260505054043 57 23 2.0 4.0 0.00 0.00 0.00 88 1005.4
20260505053925 57 23 3.0 4.0 0.00 0.00 0.00 88 1005.4
20260505053815 57 23 2.0 4.0 0.00 0.00 0.00 88 1005.5
20260505053707 57 23 3.0 4.0 0.00 0.00 0.00 88 1005.1
20260505053601 57 23 3.0 4.0 0.00 0.00 0.00 88 1005.5
20260505053442 57 23 3.0 4.0 0.00 0.00 0.00 88 1005.4
20260505053334 57 23 3.0 4.0 0.00 0.00 0.00 88 1005.3
20260505053232 57 23 3.0 4.0 0.00 0.00 0.00 88 1005.5
20260505053000 57 23 3.0 4.0 0.00 0.00 0.00 88 1005.6
20260505052851 57 23 2.0 4.0 0.00 0.00 0.00 88 1005.5
20260505052749 57 23 3.0 4.0 0.00 0.00 0.00 88 1005.5
20260505052638 57 23 3.0 4.0 0.00 0.00 0.00 88 1005.4
20260505052518 57 23 3.0 4.0 0.00 0.00 0.00 88 1005.6
20260505052410 57 23 3.0 4.0 0.00 0.00 0.00 88 1005.5
20260505052304 57 23 4.0 4.0 0.00 0.00 0.00 88 1005.6
20260505052200 57 23 3.0 4.0 0.00 0.00 0.00 88 1005.5
20260505052040 57 23 2.0 4.0 0.00 0.00 0.00 88 1005.4
20260505051932 57 23 2.0 4.0 0.00 0.00 0.00 88 1005.7
20260505051823 57 23 2.0 4.0 0.00 0.00 0.00 88 1005.5
20260505051720 57 23 2.0 4.0 0.00 0.00 0.00 88 1005.8
20260505051559 57 23 2.0 4.0 0.00 0.00 0.00 88 1005.4
20260505051447 57 23 2.0 4.0 0.00 0.00 0.00 88 1005.6
20260505051339 57 23 2.0 4.0 0.00 0.00 0.00 87 1005.6
20260505051231 57 23 2.0 4.0 0.00 0.00 0.00 87 1005.6
20260505051113 58 23 2.0 4.0 0.00 0.00 0.00 87 1005.9
20260505051006 58 23 2.0 4.0 0.00 0.00 0.00 87 1005.8
20260505050856 58 23 2.0 4.0 0.00 0.00 0.00 87 1005.7
20260505050754 58 23 2.0 4.0 0.00 0.00 0.00 87 1005.7
20260505050629 58 45 2.0 4.0 0.00 0.00 0.00 86 1005.7
20260505050418 58 23 2.0 4.0 0.00 0.00 0.00 86 1005.6
20260505050311 58 23 3.0 4.0 0.00 0.00 0.00 86 1005.5
20260505050153 58 23 3.0 4.0 0.00 0.00 0.00 86 1005.6
20260505041713 58 45 2.0 2.0 0.00 0.00 0.00 86 1005.8
20260505041613 58 23 2.0 2.0 0.00 0.00 0.00 86 1005.8
20260505041455 58 23 2.0 2.0 0.00 0.00 0.00 86 1005.9
20260505041236 58 45 2.0 2.0 0.00 0.00 0.00 86 1006.2
20260505041127 58 23 2.0 2.0 0.00 0.00 0.00 86 1005.9
20260505041011 58 23 2.0 4.0 0.00 0.00 0.00 86 1005.8
20260505040902 58 23 2.0 4.0 0.00 0.00 0.00 86 1005.9
20260505040751 58 23 2.0 4.0 0.00 0.00 0.00 86 1006.0
20260505040649 58 23 2.0 4.0 0.00 0.00 0.00 86 1005.8
20260505040525 58 23 2.0 4.0 0.00 0.00 0.00 86 1005.9
20260505040425 58 23 2.0 4.0 0.00 0.00 0.00 86 1005.7
20260505040313 58 0 2.0 4.0 0.00 0.00 0.00 85 1006.0
20260505040159 58 0 2.0 4.0 0.00 0.00 0.00 85 1006.0
20260505040041 58 0 2.0 4.0 0.00 0.00 0.00 86 1006.0
20260505035939 58 23 2.0 4.0 0.00 0.00 0.00 86 1005.9
20260505035829 58 23 2.0 2.0 0.00 0.00 0.00 86 1005.8
20260505035718 58 23 2.0 2.0 0.00 0.00 0.00 85 1005.9
20260505035559 58 23 2.0 2.0 0.00 0.00 0.00 85 1006.1
20260505035457 58 0 2.0 2.0 0.00 0.00 0.00 85 1006.0
20260505035349 58 23 2.0 2.0 0.00 0.00 0.00 86 1006.0
20260505035237 58 23 2.0 2.0 0.00 0.00 0.00 86 1006.1
20260505035124 58 23 2.0 2.0 0.00 0.00 0.00 86 1006.0
20260505035014 58 23 2.0 2.0 0.00 0.00 0.00 86 1006.1
20260505034906 58 23 2.0 2.0 0.00 0.00 0.00 86 1006.0
20260505034641 58 23 2.0 2.0 0.00 0.00 0.00 86 1006.1
20260505034533 58 23 2.0 2.0 0.00 0.00 0.00 85 1006.0
20260505034422 58 45 2.0 2.0 0.00 0.00 0.00 85 1006.0
20260505034313 58 23 2.0 4.0 0.00 0.00 0.00 85 1005.9
20260505034155 58 45 2.0 4.0 0.00 0.00 0.00 85 1006.0
20260505034047 58 23 2.0 4.0 0.00 0.00 0.00 85 1006.0
20260505033945 58 23 2.0 4.0 0.00 0.00 0.00 85 1005.9
20260505033835 58 23 2.0 4.0 0.00 0.00 0.00 85 1006.1
20260505033712 58 23 2.0 4.0 0.00 0.00 0.00 85 1005.9
20260505033610 58 23 2.0 4.0 0.00 0.00 0.00 85 1005.9
20260505033457 58 23 2.0 4.0 0.00 0.00 0.00 85 1005.9
20260505033357 58 45 2.0 4.0 0.00 0.00 0.00 85 1006.2
20260505033236 58 45 2.0 4.0 0.00 0.00 0.00 85 1006.0
20260505033124 58 45 2.0 4.0 0.00 0.00 0.00 85 1006.1
20260505033030 58 23 2.0 4.0 0.00 0.00 0.00 85 1006.0
20260505032910 58 23 2.0 4.0 0.00 0.00 0.00 85 1005.8
20260505032752 58 23 2.0 4.0 0.00 0.00 0.00 85 1006.1
20260505032643 58 23 2.0 4.0 0.00 0.00 0.00 85 1006.0
20260505032535 58 45 2.0 4.0 0.00 0.00 0.00 85 1005.8
20260505032432 58 23 2.0 4.0 0.00 0.00 0.00 85 1006.0
20260505032312 58 23 2.0 4.0 0.00 0.00 0.00 85 1005.9
20260505032053 58 23 2.0 4.0 0.00 0.00 0.00 84 1006.1
20260505031942 58 23 2.0 4.0 0.00 0.00 0.00 84 1005.9
20260505031826 58 23 2.0 4.0 0.00 0.00 0.00 84 1005.9
20260505031725 58 23 2.0 4.0 0.00 0.00 0.00 84 1005.8
20260505031608 58 45 2.0 4.0 0.00 0.00 0.00 84 1005.8
20260505031500 58 23 2.0 4.0 0.00 0.00 0.00 84 1005.8
20260505031344 58 45 2.0 4.0 0.00 0.00 0.00 84 1005.7
20260505031308 58 23 2.0 4.0 0.00 0.00 0.00 84 1005.7
20260505031130 58 45 2.0 4.0 0.00 0.00 0.00 84 1005.7
20260505031019 58 23 2.0 4.0 0.00 0.00 0.00 84 1005.8
20260505030904 58 23 2.0 4.0 0.00 0.00 0.00 85 1005.7
20260505030752 58 23 2.0 4.0 0.00 0.00 0.00 85 1005.7
20260505030539 58 45 3.0 4.0 0.00 0.00 0.00 85 1005.8
20260505030422 58 23 3.0 4.0 0.00 0.00 0.00 85 1005.6
20260505030311 58 23 3.0 4.0 0.00 0.00 0.00 85 1005.7
20260505030209 58 45 4.0 4.0 0.00 0.00 0.00 85 1005.7
20260505030057 57 45 4.0 4.0 0.00 0.00 0.00 85 1005.6
20260505025938 57 23 3.0 4.0 0.00 0.00 0.00 85 1005.6
20260505025835 57 23 2.0 4.0 0.00 0.00 0.00 85 1005.7
20260505025723 57 23 2.0 4.0 0.00 0.00 0.00 85 1005.7
20260505025455 57 23 3.0 4.0 0.00 0.00 0.00 85 1005.5
20260505025347 57 45 2.0 4.0 0.00 0.00 0.00 85 1005.4
20260505025245 57 23 2.0 4.0 0.00 0.00 0.00 85 1005.6
20260505025136 57 23 2.0 4.0 0.00 0.00 0.00 85 1005.6
20260505025017 57 23 2.0 4.0 0.00 0.00 0.00 85 1005.4
20260505024906 57 45 2.0 4.0 0.00 0.00 0.00 85 1005.6
20260505024804 57 23 3.0 4.0 0.00 0.00 0.00 85 1005.7
20260505024654 57 23 3.0 4.0 0.00 0.00 0.00 85 1005.6
20260505024533 57 45 3.0 4.0 0.00 0.00 0.00 85 1005.6
20260505024423 57 45 3.0 4.0 0.00 0.00 0.00 85 1005.4
20260505024315 56 23 3.0 4.0 0.00 0.00 0.00 85 1005.7
20260505024212 56 23 3.0 4.0 0.00 0.00 0.00 85 1005.6
20260505023943 56 45 3.0 4.0 0.00 0.00 0.00 85 1005.5
20260505023835 56 45 4.0 4.0 0.00 0.00 0.00 85 1005.6
20260505023733 56 45 3.0 4.0 0.00 0.00 0.00 85 1005.4
20260505023613 56 23 4.0 4.0 0.00 0.00 0.00 85 1005.5
20260505023506 57 45 4.0 4.0 0.00 0.00 0.00 85 1005.6
20260505023355 57 45 3.0 4.0 0.00 0.00 0.00 85 1005.6
20260505023247 57 45 3.0 4.0 0.00 0.00 0.00 84 1005.7
20260505023129 57 23 3.0 4.0 0.00 0.00 0.00 84 1005.6
20260505022914 57 45 3.0 4.0 0.00 0.00 0.00 84 1005.5
20260505022806 57 23 4.0 4.0 0.00 0.00 0.00 84 1005.5
20260505022645 57 23 3.0 4.0 0.00 0.00 0.00 84 1005.5
20260505022536 57 23 3.0 4.0 0.00 0.00 0.00 84 1005.3
20260505022434 57 23 3.0 4.0 0.00 0.00 0.00 84 1005.5
20260505022325 57 23 3.0 4.0 0.00 0.00 0.00 84 1005.6
20260505022206 57 23 3.0 4.0 0.00 0.00 0.00 84 1005.4
20260505022058 57 45 3.0 4.0 0.00 0.00 0.00 84 1005.8
20260505021949 57 23 4.0 4.0 0.00 0.00 0.00 84 1005.5
20260505021839 57 45 4.0 4.0 0.00 0.00 0.00 84 1005.6
20260505021719 57 23 3.0 4.0 0.00 0.00 0.00 84 1005.6
20260505021615 57 23 4.0 4.0 0.00 0.00 0.00 84 1005.6
20260505021523 56 45 3.0 4.0 0.00 0.00 0.00 84 1005.6
20260505021443 56 45 3.0 4.0 0.00 0.00 0.00 84 1005.7
20260505021247 56 45 2.0 4.0 0.00 0.00 0.00 85 1005.6
20260505021132 56 23 2.0 4.0 0.00 0.00 0.00 85 1005.7
20260505021024 56 45 2.0 4.0 0.00 0.00 0.00 85 1005.7
20260505020801 55 45 3.0 4.0 0.00 0.00 0.00 85 1005.6
20260505020656 55 23 2.0 4.0 0.00 0.00 0.00 85 1005.7
20260505020612 55 45 2.0 4.0 0.00 0.00 0.00 86 1005.5
20260505020543 55 23 3.0 4.0 0.00 0.00 0.00 85 1005.4
20260505020316 55 45 3.0 4.0 0.00 0.00 0.00 85 1005.4
20260505020206 55 45 3.0 4.0 0.00 0.00 0.00 85 1005.3
20260505020114 55 45 3.0 4.0 0.00 0.00 0.00 85 1005.5
20260505020046 55 45 3.0 4.0 0.00 0.00 0.00 85 1005.3
20260505015830 55 45 3.0 4.0 0.00 0.00 0.00 86 1005.4
20260505015731 55 45 3.0 4.0 0.00 0.00 0.00 86 1005.3
20260505015622 55 45 3.0 4.0 0.00 0.00 0.00 86 1005.3
20260505015514 55 45 3.0 4.0 0.00 0.00 0.00 86 1005.4
20260505015354 55 45 3.0 4.0 0.00 0.00 0.00 86 1005.4
20260505015244 55 45 3.0 4.0 0.00 0.00 0.00 86 1005.2
20260505015134 54 45 3.0 4.0 0.00 0.00 0.00 86 1005.1
20260505015034 54 45 3.0 4.0 0.00 0.00 0.00 86 1005.6
20260505014924 54 45 3.0 4.0 0.00 0.00 0.00 86 1005.4
20260505014805 54 45 3.0 4.0 0.00 0.00 0.00 87 1005.3
20260505014700 54 45 2.0 4.0 0.00 0.00 0.00 87 1005.4
20260505014426 54 45 2.0 4.0 0.00 0.00 0.00 87 1005.3
20260505014320 54 45 2.0 4.0 0.00 0.00 0.00 87 1005.3
20260505014209 54 45 3.0 4.0 0.00 0.00 0.00 87 1005.3
20260505014101 54 45 2.0 4.0 0.00 0.00 0.00 87 1005.3
20260505013948 54 45 2.0 4.0 0.00 0.00 0.00 87 1005.2
20260505013736 54 45 2.0 4.0 0.00 0.00 0.00 86 1005.4
20260505013622 54 45 2.0 4.0 0.00 0.00 0.00 86 1005.3
20260505013505 54 45 2.0 4.0 0.00 0.00 0.00 86 1005.2
20260505013252 54 45 2.0 4.0 0.00 0.00 0.00 86 1005.5
20260505013142 54 45 2.0 4.0 0.00 0.00 0.00 87 1005.5
20260505013023 54 45 2.0 4.0 0.00 0.00 0.00 86 1005.4
20260505012918 54 45 2.0 4.0 0.00 0.00 0.00 86 1005.3
20260505012816 53 45 2.0 4.0 0.00 0.00 0.00 87 1005.2
20260505012703 53 45 2.0 4.0 0.00 0.00 0.00 87 1005.4
20260505012552 53 45 2.0 4.0 0.00 0.00 0.00 87 1005.2
20260505012443 54 45 2.0 4.0 0.00 0.00 0.00 87 1005.2
20260505012337 54 45 2.0 4.0 0.00 0.00 0.00 87 1005.1
20260505012217 54 45 2.0 4.0 0.00 0.00 0.00 86 1005.1
20260505012057 54 45 2.0 4.0 0.00 0.00 0.00 86 1005.2
20260505011953 54 45 2.0 4.0 0.00 0.00 0.00 86 1005.2
20260505011845 54 45 2.0 4.0 0.00 0.00 0.00 86 1005.2
20260505011733 54 45 2.0 4.0 0.00 0.00 0.00 86 1005.2
20260505011613 54 45 2.0 4.0 0.00 0.00 0.00 86 1005.3
20260505011513 54 45 2.0 4.0 0.00 0.00 0.00 86 1005.0
20260505011437 54 45 3.0 4.0 0.00 0.00 0.00 86 1005.1
20260505011359 54 45 2.0 4.0 0.00 0.00 0.00 86 1005.1
20260505011132 54 45 2.0 4.0 0.00 0.00 0.00 86 1005.1
20260505011037 54 45 2.0 4.0 0.00 0.00 0.00 86 1005.0
20260505010922 54 45 2.0 4.0 0.00 0.00 0.00 86 1005.2
20260505010814 54 23 2.0 4.0 0.00 0.00 0.00 85 1005.1
20260505010653 54 45 3.0 4.0 0.00 0.00 0.00 85 1005.1
20260505010543 54 45 3.0 4.0 0.00 0.00 0.00 85 1005.1
20260505010437 54 45 2.0 4.0 0.00 0.00 0.00 85 1005.1
20260505010327 54 45 3.0 4.0 0.00 0.00 0.00 85 1005.0
20260505010208 54 45 3.0 4.0 0.00 0.00 0.00 85 1005.1
20260505010100 54 23 2.0 4.0 0.00 0.00 0.00 85 1005.0
20260505005952 54 45 3.0 4.0 0.00 0.00 0.00 85 1005.1
20260505005852 54 45 3.0 4.0 0.00 0.00 0.00 85 1005.1
20260505005621 54 23 3.0 4.0 0.00 0.00 0.00 85 1005.1
20260505005512 54 45 3.0 4.0 0.00 0.00 0.00 85 1005.1
20260505005410 54 45 4.0 4.0 0.00 0.00 0.00 85 1005.1
20260505005246 54 45 3.0 4.0 0.00 0.00 0.00 85 1005.0
20260505005136 54 45 3.0 4.0 0.00 0.00 0.00 85 1005.0
20260505005044 54 45 3.0 4.0 0.00 0.00 0.00 85 1005.0
20260505004923 54 45 3.0 4.0 0.00 0.00 0.00 85 1005.0
20260505004805 54 23 3.0 4.0 0.00 0.00 0.00 85 1005.0
20260505004553 54 45 3.0 4.0 0.00 0.00 0.00 85 1005.0
20260505004445 54 45 3.0 4.0 0.00 0.00 0.00 85 1004.9
20260505004321 54 45 3.0 4.0 0.00 0.00 0.00 85 1004.9
20260505004218 54 45 2.0 4.0 0.00 0.00 0.00 85 1005.0
20260505004107 54 45 3.0 4.0 0.00 0.00 0.00 85 1005.2
20260505004003 54 45 2.0 4.0 0.00 0.00 0.00 85 1004.9
20260505003838 54 45 2.0 4.0 0.00 0.00 0.00 85 1004.9
20260505003736 54 45 2.0 4.0 0.00 0.00 0.00 85 1004.9
20260505003630 54 45 2.0 4.0 0.00 0.00 0.00 84 1005.0
20260505003520 54 45 2.0 4.0 0.00 0.00 0.00 85 1005.0
20260505003403 54 45 2.0 4.0 0.00 0.00 0.00 85 1005.0
20260505003254 54 45 3.0 4.0 0.00 0.00 0.00 85 1005.1
20260505003154 54 45 3.0 4.0 0.00 0.00 0.00 85 1004.8
20260505003036 54 45 3.0 4.0 0.00 0.00 0.00 85 1004.9
20260505002918 54 45 3.0 4.0 0.00 0.00 0.00 85 1005.1
20260505002808 53 45 3.0 4.0 0.00 0.00 0.00 85 1005.0
20260505002700 53 45 3.0 4.0 0.00 0.00 0.00 85 1005.0
20260505002555 53 45 3.0 4.0 0.00 0.00 0.00 85 1005.0
20260505002435 53 23 3.0 4.0 0.00 0.00 0.00 85 1004.9
20260505002327 53 45 3.0 4.0 0.00 0.00 0.00 85 1005.0
20260505002227 53 45 2.0 4.0 0.00 0.00 0.00 85 1005.0
20260505001951 53 45 2.0 4.0 0.00 0.00 0.00 85 1004.8
20260505001843 53 45 2.0 4.0 0.00 0.00 0.00 85 1005.0
20260505001742 53 45 2.0 4.0 0.00 0.00 0.00 85 1005.0
20260505001723 53 45 2.0 4.0 0.00 0.00 0.00 85 1005.0
20260505001508 53 45 2.0 4.0 0.00 0.00 0.00 85 1004.8
20260505001400 53 45 2.0 4.0 0.00 0.00 0.00 85 1004.9
20260505001300 53 45 2.0 4.0 0.00 0.00 0.00 84 1005.0
20260505001228 53 45 2.0 4.0 0.00 0.00 0.00 84 1004.9
20260505001035 53 23 2.0 4.0 0.00 0.00 0.00 84 1004.9
20260505000920 53 23 2.0 4.0 0.00 0.00 0.00 84 1004.9
20260505000814 53 23 2.0 4.0 0.00 0.00 0.00 84 1005.0
20260505000731 54 45 3.0 4.0 0.00 0.00 0.00 84 1004.9
20260505000654 54 45 3.0 4.0 0.00 0.00 0.00 84 1005.1
20260505000443 54 45 4.0 4.0 0.00 0.00 0.00 84 1004.9
20260505000332 54 45 3.0 4.0 0.00 0.00 0.00 84 1004.9
20260505000226 53 23 3.0 4.0 0.00 0.00 0.00 84 1005.0
20260505000105 53 45 3.0 4.0 0.00 0.00 0.00 84 1004.9
20260504235955 53 45 2.0 4.0 0.00 0.00 0.00 84 1004.9
20260504235852 53 45 2.0 4.0 0.00 0.00 0.00 84 1004.9
20260504235744 53 45 2.0 4.0 0.00 0.00 0.00 84 1004.9
20260504235623 54 45 2.0 4.0 0.00 0.00 0.00 84 1004.9
20260504235408 54 45 2.0 4.0 0.00 0.00 0.00 83 1004.8
20260504235257 54 23 2.0 4.0 0.00 0.00 0.00 83 1005.0
20260504235139 54 45 2.0 4.0 0.00 0.00 0.00 83 1004.8
20260504234925 54 23 2.0 4.0 0.00 0.00 0.00 83 1004.8
20260504234815 54 45 2.0 4.0 0.00 0.00 0.00 82 1004.8
20260504234657 54 23 2.0 4.0 0.00 0.00 0.00 82 1004.8
20260504234553 54 45 2.0 4.0 0.00 0.00 0.00 82 1004.8
20260504234450 54 45 2.0 4.0 0.00 0.00 0.00 82 1004.7
20260504234334 54 68 2.0 4.0 0.00 0.00 0.00 82 1004.8
20260504234215 54 68 2.0 4.0 0.00 0.00 0.00 82 1004.8
20260504234110 55 68 2.0 4.0 0.00 0.00 0.00 81 1004.6
20260504234007 55 45 2.0 4.0 0.00 0.00 0.00 81 1004.8
20260504233854 55 45 2.0 4.0 0.00 0.00 0.00 81 1005.0
20260504233738 55 45 2.0 4.0 0.00 0.00 0.00 80 1004.7
20260504233629 55 45 3.0 4.0 0.00 0.00 0.00 80 1004.7
20260504233517 55 45 2.0 4.0 0.00 0.00 0.00 81 1004.8
20260504233415 55 45 2.0 4.0 0.00 0.00 0.00 81 1004.7
20260504233256 55 68 2.0 4.0 0.00 0.00 0.00 80 1004.7
20260504233148 55 45 2.0 4.0 0.00 0.00 0.00 80 1004.6
20260504233040 55 68 2.0 4.0 0.00 0.00 0.00 80 1004.7
20260504232810 55 45 2.0 4.0 0.00 0.00 0.00 80 1004.7
20260504232702 55 45 2.0 4.0 0.00 0.00 0.00 81 1004.7
20260504232600 55 45 2.0 2.0 0.00 0.00 0.00 81 1004.6
20260504232446 54 45 2.0 2.0 0.00 0.00 0.00 81 1004.6
20260504232332 54 45 2.0 2.0 0.00 0.00 0.00 82 1004.7
20260504232224 54 45 2.0 2.0 0.00 0.00 0.00 82 1004.6
20260504232115 54 45 2.0 2.0 0.00 0.00 0.00 81 1004.6
20260504232006 54 45 2.0 2.0 0.00 0.00 0.00 81 1004.5
20260504231848 54 45 2.0 2.0 0.00 0.00 0.00 81 1004.4
20260504231740 54 45 2.0 2.0 0.00 0.00 0.00 81 1004.3
20260504231633 54 23 2.0 2.0 0.00 0.00 0.00 81 1004.5
20260504231524 54 23 2.0 2.0 0.00 0.00 0.00 81 1004.4
20260504231409 54 23 2.0 2.0 0.00 0.00 0.00 81 1004.4
20260504231156 54 45 2.0 2.0 0.00 0.00 0.00 82 1004.4
20260504231043 54 23 2.0 2.0 0.00 0.00 0.00 82 1004.4
20260504230923 55 23 2.0 2.0 0.00 0.00 0.00 82 1004.2
20260504230813 55 23 2.0 2.0 0.00 0.00 0.00 81 1004.3
20260504230709 55 23 2.0 2.0 0.00 0.00 0.00 81 1004.3
20260504230600 55 45 2.0 2.0 0.00 0.00 0.00 81 1004.4
20260504230442 55 45 2.0 2.0 0.00 0.00 0.00 80 1004.3
20260504230226 55 45 2.0 2.0 0.00 0.00 0.00 80 1004.2
20260504230118 55 45 2.0 2.0 0.00 0.00 0.00 80 1004.3
20260504225958 55 68 2.0 2.0 0.00 0.00 0.00 81 1004.4
20260504225858 55 45 2.0 2.0 0.00 0.00 0.00 81 1004.2
20260504225747 55 45 2.0 2.0 0.00 0.00 0.00 81 1004.2
20260504225637 55 45 2.0 2.0 0.00 0.00 0.00 81 1004.3
20260504225516 55 45 2.0 2.0 0.00 0.00 0.00 81 1004.2
20260504225407 55 45 2.0 2.0 0.00 0.00 0.00 81 1004.3
20260504225304 55 45 2.0 2.0 0.00 0.00 0.00 81 1004.2
20260504225151 55 45 2.0 2.0 0.00 0.00 0.00 81 1003.9
20260504225034 55 45 2.0 2.0 0.00 0.00 0.00 80 1004.0
20260504224926 55 23 2.0 2.0 0.00 0.00 0.00 80 1004.0
20260504224824 55 23 2.0 2.0 0.00 0.00 0.00 79 1004.1
20260504224713 55 23 2.0 2.0 0.00 0.00 0.00 79 1004.1
20260504224555 55 23 2.0 4.0 0.00 0.00 0.00 79 1004.1
20260504224445 55 23 2.0 4.0 0.00 0.00 0.00 79 1004.0
20260504224337 55 23 2.0 4.0 0.00 0.00 0.00 79 1004.1
20260504224233 56 23 2.0 4.0 0.00 0.00 0.00 79 1004.0
20260504224109 56 23 2.0 4.0 0.00 0.00 0.00 79 1004.0
20260504224000 56 23 2.0 4.0 0.00 0.00 0.00 79 1004.0
20260504223859 56 23 2.0 4.0 0.00 0.00 0.00 79 1003.8
20260504223633 55 23 2.0 4.0 0.00 0.00 0.00 79 1004.1
20260504223523 55 23 2.0 4.0 0.00 0.00 0.00 79 1003.9
20260504223414 55 23 2.0 4.0 0.00 0.00 0.00 78 1004.0
20260504223304 55 23 2.0 4.0 0.00 0.00 0.00 78 1003.6
20260504223152 56 23 2.0 4.0 0.00 0.00 0.00 78 1003.9
20260504223042 56 23 2.0 4.0 0.00 0.00 0.00 78 1004.0
20260504222940 56 23 2.0 4.0 0.00 0.00 0.00 77 1003.9
20260504222824 56 23 3.0 4.0 0.00 0.00 0.00 77 1003.8
20260504222703 57 23 3.0 4.0 0.00 0.00 0.00 76 1003.8
20260504222555 57 23 3.0 4.0 0.00 0.00 0.00 76 1003.8
20260504222501 57 23 3.0 4.0 0.00 0.00 0.00 76 1004.0
20260504222346 57 23 3.0 4.0 0.00 0.00 0.00 76 1003.8
20260504222231 57 23 2.0 4.0 0.00 0.00 0.00 76 1003.9
20260504222121 57 23 2.0 2.0 0.00 0.00 0.00 76 1003.9
20260504222028 57 23 2.0 2.0 0.00 0.00 0.00 76 1003.9
20260504221952 57 23 2.0 2.0 0.00 0.00 0.00 76 1003.9
20260504221746 57 23 2.0 2.0 0.00 0.00 0.00 77 1004.0
20260504221525 56 23 2.0 4.0 0.00 0.00 0.00 77 1003.9
20260504221423 56 23 2.0 4.0 0.00 0.00 0.00 77 1003.8
20260504221304 56 23 2.0 4.0 0.00 0.00 0.00 76 1003.7
20260504221044 57 23 2.0 4.0 0.00 0.00 0.00 76 1003.5
20260504220936 57 23 2.0 4.0 0.00 0.00 0.00 75 1003.5
20260504220815 57 23 2.0 4.0 0.00 0.00 0.00 75 1003.4
20260504220707 57 23 2.0 4.0 0.00 0.00 0.00 74 1003.5
20260504220605 57 23 2.0 4.0 0.00 0.00 0.00 74 1003.7
20260504220456 57 23 2.0 4.0 0.00 0.00 0.00 74 1003.5
20260504220339 58 23 2.0 4.0 0.00 0.00 0.00 73 1003.5
20260504220231 58 23 2.0 4.0 0.00 0.00 0.00 73 1003.5
20260504220121 58 23 3.0 4.0 0.00 0.00 0.00 73 1003.5
20260504220012 58 23 2.0 4.0 0.00 0.00 0.00 73 1003.6
20260504215855 58 23 2.0 4.0 0.00 0.00 0.00 73 1003.5
20260504215744 58 23 2.0 4.0 0.00 0.00 0.00 73 1003.5
20260504215644 57 23 2.0 4.0 0.00 0.00 0.00 73 1003.5
20260504215532 57 23 2.0 4.0 0.00 0.00 0.00 73 1003.5
20260504215412 57 23 2.0 4.0 0.00 0.00 0.00 72 1003.4
20260504215305 57 23 2.0 4.0 0.00 0.00 0.00 72 1003.5
20260504215156 58 23 2.0 4.0 0.00 0.00 0.00 72 1003.4
20260504215046 58 23 2.0 4.0 0.00 0.00 0.00 71 1003.3
20260504214930 58 23 2.0 4.0 0.00 0.00 0.00 71 1003.3
20260504214828 58 23 2.0 4.0 0.00 0.00 0.00 70 1003.5
20260504214752 59 23 2.0 4.0 0.00 0.00 0.00 70 1003.3
20260504214716 59 23 2.0 6.0 0.00 0.00 0.00 70 1003.6
20260504214450 59 45 2.0 6.0 0.00 0.00 0.00 70 1003.5
20260504214341 59 45 2.0 6.0 0.00 0.00 0.00 69 1003.4
20260504214233 59 45 2.0 6.0 0.00 0.00 0.00 69 1003.5
20260504214124 60 23 2.0 6.0 0.00 0.00 0.00 69 1003.4
20260504213855 60 23 2.0 6.0 0.00 0.00 0.00 68 1003.4
20260504213755 60 23 3.0 6.0 0.00 0.00 0.00 67 1003.4
20260504213710 61 23 4.0 6.0 0.00 0.00 0.00 66 1003.3
20260504213524 61 23 2.0 4.0 0.00 0.00 0.00 68 1003.4
20260504213423 61 23 2.0 2.0 0.00 0.00 0.00 67 1003.4
20260504213311 61 23 2.0 2.0 0.00 0.00 0.00 67 1003.3
20260504213202 61 23 2.0 2.0 0.00 0.00 0.00 67 1003.3
20260504213051 61 23 2.0 2.0 0.00 0.00 0.00 67 1002.9
20260504212934 62 23 2.0 2.0 0.00 0.00 0.00 67 1003.1
20260504212826 62 23 2.0 2.0 0.00 0.00 0.00 66 1003.3
20260504212718 62 45 2.0 2.0 0.00 0.00 0.00 66 1003.2
20260504212558 62 23 2.0 2.0 0.00 0.00 0.00 66 1003.2
20260504212456 62 45 2.0 2.0 0.00 0.00 0.00 65 1003.2
20260504212347 62 45 2.0 2.0 0.00 0.00 0.00 65 1003.1
20260504212240 63 23 2.0 2.0 0.00 0.00 0.00 65 1003.2
20260504212205 63 23 2.0 2.0 0.00 0.00 0.00 64 1003.2
20260504212136 63 45 2.0 2.0 0.00 0.00 0.00 64 1003.3
20260504211906 64 45 2.0 2.0 0.00 0.00 0.00 64 1003.1
20260504211756 64 45 2.0 2.0 0.00 0.00 0.00 63 1003.3
20260504211638 64 45 2.0 2.0 0.00 0.00 0.00 62 1003.2
20260504211546 64 45 2.0 2.0 0.00 0.00 0.00 62 1003.2
20260504211420 65 45 2.0 2.0 0.00 0.00 0.00 61 1003.2
20260504211317 65 45 2.0 2.0 0.00 0.00 0.00 60 1003.1
20260504211153 65 23 2.0 2.0 0.00 0.00 0.00 60 1003.1
20260504211044 65 23 2.0 4.0 0.00 0.00 0.00 60 1003.3
20260504210943 65 23 2.0 4.0 0.00 0.00 0.00 60 1003.2
20260504210832 66 23 2.0 4.0 0.00 0.00 0.00 59 1003.4
20260504210712 66 23 2.0 4.0 0.00 0.00 0.00 58 1003.2
20260504210628 66 23 2.0 4.0 0.00 0.00 0.00 58 1003.3
20260504210552 67 23 2.0 6.0 0.00 0.00 0.00 57 1003.3
20260504210349 67 23 2.0 6.0 0.00 0.00 0.00 57 1003.3
20260504210228 68 23 2.0 6.0 0.00 0.00 0.00 56 1003.3
20260504210126 68 23 2.0 6.0 0.00 0.00 0.00 56 1003.2
20260504210051 68 23 2.0 6.0 0.00 0.00 0.00 55 1003.3
20260504205904 69 0 3.0 6.0 0.00 0.00 0.00 54 1003.3
20260504205746 69 0 3.0 6.0 0.00 0.00 0.00 54 1003.3
20260504205641 69 0 3.0 6.0 0.00 0.00 0.00 53 1003.4
20260504205605 70 0 4.0 6.0 0.00 0.00 0.00 53 1003.4
20260504205537 70 0 4.0 6.0 0.00 0.00 0.00 52 1003.4
20260504205310 70 0 4.0 6.0 0.00 0.00 0.00 53 1003.4
20260504205159 70 0 4.0 6.0 0.00 0.00 0.00 52 1003.5
20260504205050 70 0 4.0 6.0 0.00 0.00 0.00 52 1003.3
20260504204942 71 22 4.0 6.0 0.00 0.00 0.00 51 1003.5
20260504204824 71 22 4.0 6.0 0.00 0.00 0.00 51 1003.6
20260504204714 71 22 4.0 6.0 0.00 0.00 0.00 51 1003.3
20260504204613 71 22 4.0 6.0 0.00 0.00 0.00 51 1003.5
20260504204521 71 22 4.0 6.0 0.00 0.00 0.00 51 1003.5
20260504204342 71 22 4.0 6.0 0.00 0.00 0.00 51 1003.5
20260504204232 71 22 2.0 6.0 0.00 0.00 0.00 52 1003.6
20260504204130 71 22 3.0 6.0 0.00 0.00 0.00 52 1003.5
20260504204017 72 22 3.0 6.0 0.00 0.00 0.00 52 1003.4
20260504203751 72 22 4.0 6.0 0.00 0.00 0.00 51 1003.4
20260504203643 72 22 4.0 6.0 0.00 0.00 0.00 49 1003.6
20260504203535 73 22 4.0 6.0 0.00 0.00 0.00 50 1003.6
20260504203424 73 45 4.0 6.0 0.00 0.00 0.00 49 1003.7
20260504203310 73 22 4.0 6.0 0.00 0.00 0.00 48 1003.6
20260504203208 73 22 4.0 6.0 0.00 0.00 0.00 48 1003.4
20260504203052 73 22 4.0 7.0 0.00 0.00 0.00 48 1003.5
20260504202934 73 22 4.0 7.0 0.00 0.00 0.00 47 1003.5
20260504202724 73 22 4.0 7.0 0.00 0.00 0.00 47 1003.6
20260504202616 73 0 4.0 8.0 0.00 0.00 0.00 47 1003.6
20260504202524 73 22 4.0 8.0 0.00 0.00 0.00 47 1003.6
20260504202447 74 45 4.0 8.0 0.00 0.00 0.00 46 1003.6
20260504202237 74 22 4.0 9.0 0.00 0.00 0.00 46 1003.6
20260504202136 74 22 5.0 9.0 0.00 0.00 0.00 46 1003.6
20260504202028 74 22 6.0 9.0 0.00 0.00 0.00 46 1003.7
20260504201940 74 22 5.0 9.0 0.00 0.00 0.00 46 1003.6
20260504201802 74 22 4.0 11.0 0.00 0.00 0.00 46 1003.7
20260504201654 74 22 5.0 11.0 0.00 0.00 0.00 46 1003.7
20260504201535 74 22 7.0 11.0 0.00 0.00 0.00 46 1003.5
20260504201426 74 22 4.0 11.0 0.00 0.00 0.00 46 1003.4
20260504201321 74 22 5.0 11.0 0.00 0.00 0.00 46 1003.7
20260504201208 74 22 7.0 11.0 0.00 0.00 0.00 45 1003.5
20260504201050 74 22 6.0 11.0 0.00 0.00 0.00 46 1003.5
20260504200945 74 22 7.0 11.0 0.00 0.00 0.00 45 1003.6
20260504200918 74 22 7.0 11.0 0.00 0.00 0.00 45 1003.7
20260504200723 74 45 4.0 9.0 0.00 0.00 0.00 45 1003.7
20260504200605 74 22 4.0 9.0 0.00 0.00 0.00 46 1003.5
20260504200458 74 22 5.0 9.0 0.00 0.00 0.00 45 1003.6
20260504200356 74 45 4.0 9.0 0.00 0.00 0.00 45 1003.6
20260504200124 74 22 5.0 9.0 0.00 0.00 0.00 45 1003.5
20260504200015 74 22 4.0 8.0 0.00 0.00 0.00 46 1003.6
20260504195911 74 22 6.0 8.0 0.00 0.00 0.00 46 1003.6
20260504195801 74 22 5.0 9.0 0.00 0.00 0.00 45 1003.3
20260504195643 75 22 7.0 11.0 0.00 0.00 0.00 45 1003.3
20260504195535 75 22 5.0 11.0 0.00 0.00 0.00 45 1003.5
20260504195427 75 22 4.0 11.0 0.00 0.00 0.00 45 1003.5
20260504195322 75 45 4.0 11.0 0.00 0.00 0.00 45 1003.5
20260504195204 74 0 5.0 11.0 0.00 0.00 0.00 45 1003.5
20260504195056 74 22 4.0 11.0 0.00 0.00 0.00 46 1003.6
20260504194944 74 22 5.0 11.0 0.00 0.00 0.00 45 1003.5
20260504194836 74 22 6.0 11.0 0.00 0.00 0.00 45 1003.5
20260504194728 75 45 8.0 11.0 0.00 0.00 0.00 45 1003.5
20260504194609 75 22 4.0 11.0 0.00 0.00 0.00 45 1003.5
20260504194501 75 22 5.0 11.0 0.00 0.00 0.00 45 1003.4
20260504194355 75 45 7.0 11.0 0.00 0.00 0.00 45 1003.6
20260504194235 75 22 7.0 11.0 0.00 0.00 0.00 45 1003.5
20260504194130 75 22 8.0 11.0 0.00 0.00 0.00 44 1003.5
20260504194022 75 22 6.0 11.0 0.00 0.00 0.00 44 1003.7
20260504193911 75 45 6.0 11.0 0.00 0.00 0.00 44 1003.5
20260504193758 75 0 7.0 11.0 0.00 0.00 0.00 44 1003.7
20260504193540 75 45 6.0 11.0 0.00 0.00 0.00 44 1003.6
20260504193430 75 22 6.0 11.0 0.00 0.00 0.00 44 1003.6
20260504193328 75 22 6.0 11.0 0.00 0.00 0.00 44 1003.7
20260504193251 75 22 7.0 11.0 0.00 0.00 0.00 44 1003.5
20260504193057 75 45 5.0 11.0 0.00 0.00 0.00 44 1003.7
20260504192948 75 22 8.0 13.0 0.00 0.00 0.00 44 1003.8
20260504192829 75 22 8.0 13.0 0.00 0.00 0.00 43 1003.7
20260504192727 75 22 6.0 13.0 0.00 0.00 0.00 45 1003.6
20260504192623 75 22 7.0 13.0 0.00 0.00 0.00 44 1003.7
20260504192511 75 22 8.0 13.0 0.00 0.00 0.00 44 1003.5
20260504192353 75 0 6.0 13.0 0.00 0.00 0.00 44 1003.6
20260504192243 75 45 5.0 13.0 0.00 0.00 0.00 44 1003.7
20260504192031 75 0 8.0 11.0 0.00 0.00 0.00 45 1003.7
20260504191911 76 45 8.0 11.0 0.00 0.00 0.00 45 1003.6
20260504191803 76 293 7.0 11.0 0.00 0.00 0.00 44 1003.6
20260504191654 76 22 5.0 11.0 0.00 0.00 0.00 44 1003.6
20260504191545 76 22 6.0 11.0 0.00 0.00 0.00 44 1003.8
20260504191429 76 22 6.0 11.0 0.00 0.00 0.00 43 1003.6
20260504191318 76 45 4.0 11.0 0.00 0.00 0.00 43 1003.8
20260504191209 76 45 5.0 11.0 0.00 0.00 0.00 43 1003.6
20260504190944 76 293 8.0 11.0 0.00 0.00 0.00 43 1003.8
20260504190836 76 293 8.0 11.0 0.00 0.00 0.00 43 1003.8
20260504190727 76 293 4.0 11.0 0.00 0.00 0.00 43 1003.8
20260504190626 75 22 5.0 11.0 0.00 0.00 0.00 45 1003.6
20260504190506 75 45 7.0 11.0 0.00 0.00 0.00 44 1003.8
20260504190355 75 22 8.0 11.0 0.00 0.00 0.00 43 1003.7
20260504190244 75 293 4.0 11.0 0.00 0.00 0.00 43 1003.6
20260504190142 75 45 4.0 11.0 0.00 0.00 0.00 43 1003.7
20260504190018 75 22 7.0 11.0 0.00 0.00 0.00 44 1003.6
20260504185908 75 45 8.0 11.0 0.00 0.00 0.00 43 1004.0
20260504185806 75 45 8.0 11.0 0.00 0.00 0.00 42 1003.9
20260504185658 76 45 8.0 11.0 0.00 0.00 0.00 43 1003.8
20260504185544 76 45 8.0 11.0 0.00 0.00 0.00 43 1003.8
20260504185434 75 45 8.0 9.0 0.00 0.00 0.00 43 1003.9
20260504185324 75 293 4.0 9.0 0.00 0.00 0.00 44 1003.9
20260504185213 75 22 6.0 9.0 0.00 0.00 0.00 43 1003.8
20260504185057 75 22 4.0 9.0 0.00 0.00 0.00 44 1003.9
20260504184947 75 22 8.0 13.0 0.00 0.00 0.00 44 1004.1
20260504184839 75 22 8.0 13.0 0.00 0.00 0.00 44 1004.2
20260504184737 75 22 6.0 13.0 0.00 0.00 0.00 43 1004.0
20260504184620 75 45 6.0 13.0 0.00 0.00 0.00 43 1003.9
20260504184358 75 45 6.0 13.0 0.00 0.00 0.00 44 1003.9
20260504184256 75 45 7.0 13.0 0.00 0.00 0.00 44 1004.0
20260504184130 75 45 7.0 13.0 0.00 0.00 0.00 43 1004.0
20260504184035 75 45 8.0 13.0 0.00 0.00 0.00 43 1004.0
20260504183921 75 0 8.0 13.0 0.00 0.00 0.00 43 1004.0
20260504183813 75 293 7.0 13.0 0.00 0.00 0.00 43 1003.9
20260504183654 75 45 5.0 13.0 0.00 0.00 0.00 43 1003.9
20260504183546 75 22 4.0 13.0 0.00 0.00 0.00 44 1004.0
20260504183433 75 22 4.0 13.0 0.00 0.00 0.00 44 1003.9
20260504183324 75 22 4.0 13.0 0.00 0.00 0.00 44 1003.9
20260504183213 75 45 4.0 13.0 0.00 0.00 0.00 43 1003.9
20260504183102 75 45 6.0 13.0 0.00 0.00 0.00 44 1003.9
20260504183002 75 22 9.0 13.0 0.00 0.00 0.00 43 1003.8
20260504182852 75 45 7.0 11.0 0.00 0.00 0.00 43 1004.0
20260504182724 75 45 6.0 11.0 0.00 0.00 0.00 43 1003.9
20260504182621 75 22 8.0 11.0 0.00 0.00 0.00 43 1003.8
20260504182510 75 0 8.0 11.0 0.00 0.00 0.00 43 1004.0
20260504182400 75 0 8.0 11.0 0.00 0.00 0.00 42 1003.9
20260504182241 75 45 7.0 11.0 0.00 0.00 0.00 43 1004.0
20260504182140 76 22 6.0 11.0 0.00 0.00 0.00 42 1004.1
20260504182031 76 293 7.0 11.0 0.00 0.00 0.00 43 1004.2
20260504181806 75 45 8.0 11.0 0.00 0.00 0.00 42 1004.0
20260504181658 75 293 7.0 11.0 0.00 0.00 0.00 43 1004.5
20260504181548 75 45 6.0 11.0 0.00 0.00 0.00 42 1004.1
20260504181437 75 293 7.0 11.0 0.00 0.00 0.00 43 1004.2
20260504181324 75 22 7.0 11.0 0.00 0.00 0.00 43 1004.1
20260504181212 75 45 8.0 11.0 0.00 0.00 0.00 43 1004.1
20260504181104 75 45 6.0 11.0 0.00 0.00 0.00 43 1004.3
20260504180955 75 293 7.0 11.0 0.00 0.00 0.00 43 1004.3
20260504180836 75 293 8.0 11.0 0.00 0.00 0.00 43 1004.3
20260504180728 75 293 8.0 11.0 0.00 0.00 0.00 43 1004.4
20260504180628 75 293 6.0 11.0 0.00 0.00 0.00 43 1004.3
20260504180516 75 45 8.0 11.0 0.00 0.00 0.00 43 1004.3
20260504180400 75 293 8.0 11.0 0.00 0.00 0.00 43 1004.2
20260504180249 75 293 8.0 11.0 0.00 0.00 0.00 43 1004.3
20260504180140 75 0 8.0 11.0 0.00 0.00 0.00 44 1004.3
20260504180035 75 22 7.0 11.0 0.00 0.00 0.00 43 1004.4
20260504175917 75 22 7.0 11.0 0.00 0.00 0.00 43 1004.5
20260504175805 75 22 4.0 11.0 0.00 0.00 0.00 44 1004.6
20260504175657 75 22 5.0 11.0 0.00 0.00 0.00 43 1004.5
20260504175549 75 45 8.0 11.0 0.00 0.00 0.00 43 1004.5
20260504175437 74 45 4.0 11.0 0.00 0.00 0.00 43 1004.4
20260504175221 75 22 8.0 11.0 0.00 0.00 0.00 44 1004.6
20260504175110 75 22 5.0 11.0 0.00 0.00 0.00 43 1004.5
20260504175002 75 45 5.0 11.0 0.00 0.00 0.00 43 1004.7
20260504174935 74 45 5.0 11.0 0.00 0.00 0.00 43 1004.7
20260504174733 74 293 5.0 11.0 0.00 0.00 0.00 43 1004.7
20260504174624 74 293 8.0 11.0 0.00 0.00 0.00 43 1004.6
20260504174514 74 293 8.0 11.0 0.00 0.00 0.00 43 1004.8
20260504174358 74 22 8.0 11.0 0.00 0.00 0.00 43 1004.8
20260504174254 74 293 8.0 11.0 0.00 0.00 0.00 44 1004.7
20260504174144 74 22 6.0 14.0 0.00 0.00 0.00 44 1004.6
20260504174035 74 22 8.0 14.0 0.00 0.00 0.00 45 1004.7
20260504173826 74 22 6.0 14.0 0.00 0.00 0.00 44 1004.9
20260504173703 74 22 6.0 14.0 0.00 0.00 0.00 46 1004.7
20260504173546 74 45 8.0 14.0 0.00 0.00 0.00 45 1004.9
20260504173452 74 45 6.0 14.0 0.00 0.00 0.00 44 1004.8
20260504173416 74 22 8.0 14.0 0.00 0.00 0.00 44 1004.7
20260504173221 74 22 6.0 11.0 0.00 0.00 0.00 44 1004.9
20260504173104 74 22 8.0 11.0 0.00 0.00 0.00 44 1004.9
20260504172953 74 45 5.0 11.0 0.00 0.00 0.00 44 1004.8
20260504172845 74 293 4.0 11.0 0.00 0.00 0.00 44 1005.0
20260504172620 74 22 6.0 11.0 0.00 0.00 0.00 45 1005.0
20260504172518 74 22 3.0 11.0 0.00 0.00 0.00 45 1004.9
20260504172408 74 248 4.0 11.0 0.00 0.00 0.00 44 1004.9
20260504172259 74 45 5.0 11.0 0.00 0.00 0.00 44 1005.1
20260504172137 74 45 2.0 11.0 0.00 0.00 0.00 45 1004.9
20260504172034 74 45 3.0 11.0 0.00 0.00 0.00 44 1004.8
20260504171923 74 293 3.0 11.0 0.00 0.00 0.00 44 1005.1
20260504171814 74 45 7.0 11.0 0.00 0.00 0.00 44 1005.0
20260504171654 74 293 8.0 11.0 0.00 0.00 0.00 45 1005.2
20260504171551 74 22 7.0 11.0 0.00 0.00 0.00 43 1004.9
20260504171443 74 270 8.0 11.0 0.00 0.00 0.00 43 1004.9
20260504171334 74 293 8.0 11.0 0.00 0.00 0.00 44 1004.9
20260504171226 74 22 4.0 11.0 0.00 0.00 0.00 43 1004.8
20260504171107 74 22 4.0 14.0 0.00 0.00 0.00 44 1005.0
20260504170957 74 293 4.0 14.0 0.00 0.00 0.00 45 1005.1
20260504170848 74 45 4.0 14.0 0.00 0.00 0.00 44 1005.3
20260504170731 75 22 4.0 14.0 0.00 0.00 0.00 43 1005.1
20260504170627 75 293 4.0 14.0 0.00 0.00 0.00 44 1005.0
20260504170518 74 22 5.0 14.0 0.00 0.00 0.00 44 1005.2
20260504170413 73 22 5.0 14.0 0.00 0.00 0.00 44 1005.3
20260504170255 73 0 6.0 14.0 0.00 0.00 0.00 44 1005.1